Retour au catalogue

STARLINK-32774

ActifCommunicationsVLEO
NORAD 62737·PAYLOAD·🇺🇸 United States

Lancé Jan 21, 2025 depuis Cape Canaveral Space Force Station

Loading…

Prochains Passages (prochaines 24 heures)

TLE

FraisSource: CelesTrak SupGP

Époque: Sep 14, 2026, 21:43 UTC

1 62737C 25014C   26257.90534722 -.00051086  00000+0 -18502-2 0  2577
2 62737  43.0026 169.0345 0001332 266.8337 255.3938 15.27605496    15

Suivez STARLINK-32774 en temps réel avec AllMySat

Download on the App Store